Regional Weather Roundup
Issued by NWS

Home | Current Version | Previous Version | Graphics & Text | Print | Product List | Glossary On
Versions: 1 2 3 4 5 6 7 8 9 10 11 12 13 14 15 16 17 18 19 20 21 22 23 24 25 26 27 28 29 30 31 32 33 34 35 36 37 38 39 40 41 42 43 44 45 46 47 48 49 50
000
ASUS43 KFSD 280410
RWRSD

WEATHER ROUNDUP FOR SOUTH DAKOTA
NATIONAL WEATHER SERVICE SIOUX FALLS SD
1100 PM CDT FRI MAR 27 2015

NOTE: "FAIR" INDICATES FEW OR NO CLOUDS BELOW 12,000 FEET WITH NO
SIGNIFICANT WEATHER AND/OR OBSTRUCTIONS TO VISIBILITY.


SDZ001>005-009-010-012>017-280500-
NORTHWEST AND NORTH CENTRAL SOUTH DAKOTA

CITY           SKY/WX    TMP DP  RH WIND       PRES   REMARKS
BUFFALO          N/A     49  34  56 E8        29.88R
FAITH            N/A     44  32  62 NE10      29.94R
$$

SDZ012>016-024>037-041>051-057-063-072>074-280500-
SOUTHWEST AND SOUTH CENTRAL SOUTH DAKOTA

CITY           SKY/WX    TMP DP  RH WIND       PRES   REMARKS
RAPID CTY ARPT PTCLDY    43  32  65 NW9       29.95R
PIERRE         PTCLDY    33  29  85 SE8       29.95R WCI  26
CUSTER         PTCLDY    45  27  49 W6        30.03S
ELLSWORTH AFB  PTCLDY    47  33  59 NW8       29.94R
PHILIP         PTCLDY    43  31  62 NE6       29.93R
PINE RIDGE     PTCLDY    43  32  65 CALM      29.97R
SPEARFISH      FAIR      52  32  46 W6        29.99S
WINNER         FAIR      37  29  72 SE7       29.94R
$$

SDZ004>011-016>023-039-040-280500-
NORTHEAST SOUTH DAKOTA

CITY           SKY/WX    TMP DP  RH WIND       PRES   REMARKS
ABERDEEN       CLOUDY    32  27  81 SE9       30.04S WCI  24
WATERTOWN      CLOUDY    29  25  85 SE9G18    30.05S WCI  20
SISSETON         N/A     28  27  96 S9        30.08S WCI  19
$$

SDZ017-020-022-023-036>040-048>070-280500-
SOUTHEAST SOUTH DAKOTA

CITY           SKY/WX    TMP DP  RH WIND       PRES   REMARKS
SIOUX FALLS    CLOUDY    32  22  66 SE13      30.08R WCI  22
HURON          MOCLDY    31  28  89 SE9       30.04R WCI  23
CHAMBERLAIN    PTCLDY    32  29  88 SE6       29.97S WCI  26
MITCHELL       PTCLDY    31  27  85 SE8       30.04R WCI  23
YANKTON        CLOUDY    34  25  69 SE10      30.05R WCI  26
$$

ABBREVIATIONS USED IN REMARKS
   TC - TEMPERATURE IN CELSIUS
  WCI - WIND CHILL INDEX
   HX - HEAT INDEX
  VSB - VISIBILITY




USA.gov is the U.S. government's official web portal to all federal, state and local government web resources and services.